Annette Island, AK

9:07 AM AKDT on October 19, 2017 (GMT -0800)
Annette Island

Weather History for PANT - September, 2012

Change the Weather History Date:

Sunday, September 30, 2012

  Actual Average Record
Temperature  
Mean Temperature 51 °F 51 °F  
Max Temperature 53 °F 56 °F 70 °F (2008)
Min Temperature 49 °F 46 °F 33 °F (1996)
Degree Days  
Heating Degree Days 14 14  
Month to date heating degree days 336 334  
Since 1 July heating degree days 794 735  
Cooling Degree Days 0    
Month to date cooling degree days 0  
Year to date cooling degree days 7  
Moisture  
Dew Point 50 °F    
Average Humidity 0    
Maximum Humidity 0    
Minimum Humidity 0    
Precipitation  
Precipitation 0.60 in 0.38 in 2.48 in (1974)
Month to date precipitation 11.87 9.79  
Year to date precipitation 76.78 64.70  
Snow  
Snow 0.00 in 0.00 in 0.00 in (2015)
Month to date snowfall 0.0 0.0  
Since 1 July snowfall 0.0 0.0  
Since 1 September snowfall 0.0 0.0  
Snow Depth 0.00 in    
Sea Level Pressure  
Sea Level Pressure 30.09 in    
Wind  
Wind Speed 5 mph (SE)    
Max Wind Speed 9 mph    
Max Gust Speed 13 mph    
Visibility 6 miles    
Events Rain    
T = Trace of Precipitation, MM = Missing Value Source: NWS Daily Summary

Daily Weather History Graph

Daily Weather History Graph

Search for Another Location

Airport or City:

Trip Planner

Search our weather history database for the weather conditions in past years. The results will help you decide how hot, cold, wet, or windy it might be!

Date:

Astronomy

Sep. 30, 2012 Rise Set
Actual Time 6:48 AM AKDT 6:22 PM AKDT
Civil Twilight 6:11 AM AKDT 6:58 PM AKDT
Nautical Twilight 5:29 AM AKDT 7:41 PM AKDT
Astronomical Twilight 4:45 AM AKDT 8:24 PM AKDT
Moon 6:11 PM AKDT (9/30) 7:41 AM AKDT (9/30)
Length of Visible Light 12h 46m
Length of Day
11h 34m
Full, 100% of the Moon is Illuminated
Sep 30
Full
Oct 7
Last Quarter
Oct 15
New
Oct 21
First Quarter
Oct 29
Full

Hourly Weather History & Observations

Time (AKDT) Temp. Dew Point Humidity Pressure Visibility Wind Dir Wind Speed Gust Speed Precip Events Conditions
12:28 AM 48.2 °F 46.4 °F 93% 30.18 in 10.0 mi ESE 5.8 mph - 0.00 in   Overcast
12:53 AM 50.0 °F 46.9 °F 89% 30.19 in 10.0 mi SE 6.9 mph - 0.00 in Rain Light Rain
1:30 AM 48.2 °F 48.2 °F 100% 30.19 in 10.0 mi SE 4.6 mph - N/A   Mostly Cloudy
1:53 AM 48.9 °F 48.0 °F 97% 30.20 in 10.0 mi Calm Calm - N/A   Overcast
2:53 AM 48.9 °F 48.0 °F 97% 30.20 in 10.0 mi SE 4.6 mph - N/A   Overcast
3:53 AM 50.0 °F 46.9 °F 89% 30.20 in 10.0 mi SE 4.6 mph - N/A   Overcast
4:53 AM 50.0 °F 48.0 °F 93% 30.20 in 3.0 mi Calm Calm - 0.04 in Rain Rain
4:56 AM 50.0 °F 48.2 °F 94% 30.19 in 2.0 mi Calm Calm - 0.06 in Rain Heavy Rain
5:03 AM 50.0 °F 48.2 °F 94% 30.19 in 1.8 mi ESE 4.6 mph - 0.15 in Rain Heavy Rain
5:10 AM 50.0 °F 48.2 °F 94% 30.19 in 2.5 mi ESE 5.8 mph - 0.21 in Rain Heavy Rain
5:16 AM 50.0 °F 48.2 °F 94% 30.19 in 2.5 mi Variable 3.5 mph - 0.27 in Rain Heavy Rain
5:23 AM 50.0 °F 48.2 °F 94% 30.19 in 8.0 mi SSE 3.5 mph - 0.28 in Rain Light Rain
5:42 AM 50.0 °F 48.2 °F 94% 30.19 in 10.0 mi SE 5.8 mph - 0.28 in Rain Light Rain
5:53 AM 50.0 °F 48.9 °F 96% 30.19 in 6.0 mi SE 6.9 mph - 0.29 in Rain Light Rain
6:09 AM 50.0 °F 50.0 °F 100% 30.18 in 4.0 mi SE 5.8 mph - 0.02 in Rain Rain
6:53 AM 50.0 °F 48.9 °F 96% 30.18 in 10.0 mi SE 4.6 mph - 0.04 in Rain Light Rain
7:39 AM 50.0 °F 48.2 °F 94% 30.17 in 5.0 mi ESE 3.5 mph - 0.01 in Rain Light Rain
7:57 AM 50.0 °F 48.2 °F 94% 30.17 in 2.5 mi ESE 4.6 mph - 0.01 in Rain Light Rain
7:59 AM 50.0 °F 48.2 °F 94% 30.17 in 3.0 mi ESE 4.6 mph - 0.01 in Rain Light Rain
8:26 AM 50.0 °F 48.2 °F 94% 30.16 in 10.0 mi ESE 6.9 mph - 0.01 in Rain Light Rain
8:53 AM 50.0 °F 48.0 °F 93% 30.17 in 10.0 mi ESE 5.8 mph - 0.01 in Rain Light Rain
9:41 AM 50.0 °F 48.2 °F 94% 30.17 in 1.8 mi ESE 5.8 mph - 0.01 in Rain Light Rain
9:53 AM 50.0 °F 48.9 °F 96% 30.17 in 3.0 mi ESE 5.8 mph - 0.02 in Rain Light Rain
10:53 AM 52.0 °F 48.9 °F 89% 30.16 in 6.0 mi SE 6.9 mph - 0.01 in Rain Light Rain
11:38 AM 53.6 °F 50.0 °F 88% 30.14 in 10.0 mi ESE 6.9 mph - 0.01 in   Overcast
11:48 AM 53.6 °F 50.0 °F 88% 30.14 in 10.0 mi ESE 6.9 mph - 0.01 in Rain Light Rain
11:53 AM 53.1 °F 48.9 °F 86% 30.14 in 10.0 mi ESE 4.6 mph - 0.01 in Rain Light Rain
12:46 PM 51.8 °F 50.0 °F 94% 30.10 in 2.5 mi ESE 5.8 mph - 0.01 in Rain Light Rain
12:53 PM 52.0 °F 50.0 °F 93% 30.11 in 4.0 mi ESE 3.5 mph - 0.01 in Rain Light Rain
1:05 PM 51.8 °F 51.8 °F 100% 30.09 in 4.0 mi Variable 3.5 mph - 0.01 in Rain Light Rain
1:51 PM 51.8 °F 51.8 °F 100% 30.07 in 2.5 mi Calm Calm - 0.02 in Rain Light Rain
1:52 PM 52.0 °F 51.1 °F 97% 30.07 in 2.5 mi Calm Calm - 0.02 in Rain Light Rain
2:10 PM 51.8 °F 51.8 °F 100% 30.06 in 5.0 mi Calm Calm - 0.02 in Rain Light Rain
2:22 PM 51.8 °F 51.8 °F 100% 30.05 in 4.0 mi Calm Calm - 0.03 in Rain Rain
2:53 PM 53.1 °F 50.0 °F 89% 30.04 in 7.0 mi Variable 3.5 mph - 0.07 in Rain Light Rain
3:53 PM 52.0 °F 51.1 °F 97% 30.00 in 6.0 mi Calm Calm - 0.05 in Rain Light Rain
4:53 PM 53.1 °F 51.1 °F 93% 29.96 in 10.0 mi Calm Calm - 0.03 in Rain Light Rain
5:53 PM 52.0 °F 51.1 °F 97% 29.94 in 4.0 mi SE 3.5 mph - 0.02 in Rain Light Rain
6:53 PM 53.1 °F 50.0 °F 89% 29.92 in 9.0 mi ESE 8.1 mph - 0.02 in Rain Light Rain
7:36 PM 53.6 °F 50.0 °F 88% 29.90 in 10.0 mi ESE 9.2 mph - 0.01 in   Overcast
7:53 PM 52.0 °F 50.0 °F 93% 29.90 in 9.0 mi ESE 9.2 mph - 0.01 in Rain Light Rain
8:53 PM 52.0 °F 51.1 °F 97% 29.88 in 6.0 mi SE 8.1 mph - 0.10 in Rain Light Rain
9:17 PM 53.6 °F 51.8 °F 94% 29.87 in 10.0 mi SE 9.2 mph - 0.02 in Rain Light Rain
9:53 PM 53.1 °F 52.0 °F 96% 29.86 in 5.0 mi SE 5.8 mph - 0.06 in Rain Rain
10:53 PM 53.1 °F 52.0 °F 96% 29.81 in 8.0 mi SE 9.2 mph - 0.09 in Rain Rain
11:08 PM 53.6 °F 51.8 °F 94% 29.80 in 8.0 mi SE 9.2 mph - 0.01 in Rain Light Rain
11:53 PM 53.1 °F 53.1 °F 100% 29.78 in 6.0 mi SSE 6.9 mph - 0.06 in Rain Light Rain